Regional Weather Roundup
Issued by NWS Charleston, WV

Home | Current Version | Previous Version | Graphics & Text | Print | Product List | Glossary On
Versions: 1 2 3 4 5 6 7 8 9 10 11 12 13 14 15 16 17 18 19 20 21 22 23 24 25 26 27 28 29 30 31 32 33 34 35 36 37 38 39 40 41 42 43 44 45 46 47 48 49 50
000
ASUS41 KRLX 062310
RWRRLX
West Virginia Regional Weather Roundup
National Weather Service Charleston WV
600 PM EST FRI MAR 06 2015

Note: "fair" indicates few or no clouds below 12,000 feet with no
significant weather and/or obstructions to visibility.

WVZ003-070000-
Northern Panhandle of West Virginia

CITY           SKY/WX    TMP DP  RH WIND       PRES   REMARKS
WHEELING       CLEAR     20  11  68 SW12      30.34F WCI   8
$$

WVZ009-070000-
Northwest West Virginia

CITY           SKY/WX    TMP DP  RH WIND       PRES   REMARKS
PARKERSBURG    MOCLDY    21  13  71 VRB3      30.44S
$$

WVZ006-070000-
Western West Virginia

CITY           SKY/WX    TMP DP  RH WIND       PRES   REMARKS
HUNTINGTON     CLEAR     26  16  65 CALM      30.42S
$$

WVZ015-070000-
West Central West Virginia

CITY           SKY/WX    TMP DP  RH WIND       PRES   REMARKS
CHARLESTON     CLEAR     27  16  63 CALM      30.40S
$$

WVZ022-031-070000-
North Central West Virginia

CITY           SKY/WX    TMP DP  RH WIND       PRES   REMARKS
CLARKSBURG     PTCLDY   N/A N/A N/A W7        30.37F
MORGANTOWN     CLEAR     21  11  65 W3        30.36F
$$

WVZ025-035-042-045-070000-
Southern West Virginia

CITY           SKY/WX    TMP DP  RH WIND       PRES   REMARKS
BECKLEY        CLEAR     28   8  43 W7        30.29S
LOGAN            N/A     28  12  50 VRB3      30.33R
BLUEFIELD      CLEAR     30  17  58 W8        30.28S
LEWISBURG      CLEAR     27  19  69 CALM      30.29F
$$

WVZ047-070000-
Northern Mountains of West Virginia

CITY           SKY/WX    TMP DP  RH WIND       PRES   REMARKS
ELKINS         CLEAR     23  14  68 CALM      30.30F
$$

WVZ052-070000-
Eastern Panhandle of West Virginia

CITY           SKY/WX    TMP DP  RH WIND       PRES   REMARKS
MARTINSBURG    PTCLDY    22   3  44 SE6       30.41F
PETERSBURG     CLEAR     28   9  44 W3        30.36F
$$


USA.gov is the U.S. government's official web portal to all federal, state and local government web resources and services.